Probability
0 0 0 1 0 0 0 0 0 0 0 0 0 0 1 1 1 0 0 0 1 4 9 14 17 18 19 17 14 13 13 12 10 10 10 10 11 9 8 7 7 8 10 11 9 8 7 7 8
0 0 1 1 0 0 0 0 0 0 0 0 0 1 2 2 2 1 0 0 1 4 9 12 16 18 19 17 15 13 13 12 11 10 10 10 10 9 8 7 7 7 10 11 11 9 8 7 7
0 0 1 1 0 0 0 0 0 0 0 0 1 2 3 3 3 1 0 0 1 5 9 13 17 19 19 18 16 13 12 12 11 11 10 10 9 8 7 6 6 7 9 11 12 10 8 8 8
0 1 1 0 0 0 0 0 0 0 0 0 1 2 3 3 2 1 0 0 3 7 11 15 19 20 19 19 17 14 11 10 11 10 10 9 9 7 7 6 7 7 9 11 11 10 9 9 9
1 1 0 0 0 0 0 0 0 1 1 2 2 3 3 2 1 1 0 1 5 9 13 16 20 21 20 18 17 13 10 9 9 9 9 8 7 7 6 6 7 8 10 11 10 9 8 8 8
0 0 0 0 0 0 0 0 1 2 3 3 3 3 2 1 0 0 0 3 7 11 14 16 19 20 18 16 14 11 8 7 6 6 6 6 6 6 6 6 7 7 9 10 9 8 7 8 8
0 0 0 0 0 0 0 0 1 2 3 3 3 3 1 0 0 0 1 5 9 11 14 16 17 17 15 13 11 8 6 5 4 4 4 5 6 6 6 6 6 7 7 7 7 7 6 7 9
0 0 0 0 0 0 0 1 2 2 1 1 3 3 1 0 0 1 2 6 10 12 13 15 17 15 12 10 9 7 6 5 4 3 3 4 5 6 6 6 6 6 6 5 6 7 7 7 9
0 0 0 0 0 0 1 1 1 1 0 1 3 4 2 1 1 2 3 6 10 12 13 15 16 16 12 9 8 8 7 5 3 3 4 4 5 6 6 6 6 6 5 4 5 7 7 7 8
0 0 0 0 0 0 1 1 1 0 0 1 2 3 2 1 1 3 5 6 8 10 11 13 16 16 14 12 10 9 8 5 3 3 4 5 6 6 6 6 6 5 4 3 4 6 7 7 7
0 0 0 0 0 0 0 0 0 0 0 0 1 1 1 0 0 2 5 6 7 9 10 12 14 16 15 15 12 10 8 6 3 3 4 6 6 6 6 6 6 4 3 3 4 5 7 7 7
0 0 0 0 0 0 0 0 0 0 0 0 0 1 1 0 0 1 4 6 7 9 10 10 11 13 15 16 14 10 7 6 5 3 4 6 6 6 6 6 6 4 3 3 4 6 8 9 8
0 0 0 0 0 0 0 0 0 0 0 0 0 1 1 1 1 2 3 5 5 7 8 8 8 10 12 14 13 9 7 6 6 4 4 5 6 6 6 6 5 4 3 3 3 5 8 9 9
0 0 0 0 0 0 0 0 0 0 0 0 0 1 2 2 2 2 3 4 4 4 6 6 7 8 9 9 9 7 6 6 6 5 4 4 6 6 6 5 4 3 3 3 3 4 7 9 9
0 0 0 0 0 0 0 0 0 0 0 0 0 1 2 3 3 3 3 3 2 2 3 4 5 5 6 6 6 6 6 6 6 6 4 4 5 6 6 4 3 3 3 3 3 4 5 7 7
0 0 0 0 0 0 0 0 0 0 0 0 0 1 2 3 3 3 3 3 1 1 2 3 3 4 5 5 6 6 6 6 6 5 4 3 4 5 5 4 3 3 3 3 3 3 4 5 6
0 0 0 0 0 0 0 0 0 0 0 0 0 1 2 3 3 3 3 2 1 1 2 2 1 3 5 5 6 6 6 5 4 3 3 3 3 4 5 4 3 3 3 3 3 3 4 5 5
0 0 0 0 0 0 0 0 0 0 0 0 0 1 1 2 2 3 2 2 2 2 3 2 1 2 4 4 5 6 5 3 2 1 1 2 3 3 4 3 3 3 3 3 3 3 4 4 4
0 0 0 0 0 0 0 0 0 0 0 1 1 1 1 1 2 2 1 2 4 4 4 3 1 1 3 4 4 6 5 2 1 0 0 1 2 3 3 3 3 3 3 3 3 3 3 4 4
0 0 0 0 0 0 0 0 0 0 0 1 2 2 1 2 2 1 0 2 4 6 5 4 2 1 2 3 4 6 5 3 2 1 1 0 1 1 2 3 3 3 3 3 3 3 3 3 3
0 0 0 0 0 0 0 0 0 0 0 1 2 3 2 2 3 2 1 2 4 5 5 4 3 2 3 4 5 6 5 4 3 2 1 0 0 0 1 2 3 3 3 3 3 3 3 3 3
0 0 0 0 0 0 0 0 0 0 0 1 2 2 2 3 3 3 2 2 3 4 5 5 5 4 4 4 5 5 5 4 3 1 0 0 0 0 0 1 3 3 3 3 3 3 3 3 3
0 0 0 0 0 0 0 0 0 0 0 0 1 1 2 3 3 3 2 1 1 2 4 5 6 6 5 4 4 4 4 3 2 1 0 0 0 0 0 1 2 3 3 3 3 3 3 3 3
0 0 0 0 0 0 0 0 0 0 0 0 0 0 1 1 2 3 2 1 0 1 2 4 5 6 6 4 3 3 3 3 1 0 0 0 0 0 0 1 2 3 3 2 1 2 3 3 2
0 0 0 1 0 0 0 0 0 0 0 0 0 0 0 0 1 2 2 1 0 0 0 2 2 3 4 4 3 3 3 2 1 0 0 0 0 0 0 1 2 3 3 2 1 1 2 1 1
0 0 0 0 0 0 0 0 0 0 0 0 0 0 0 0 0 1 1 1 0 0 0 0 1 1 1 2 2 2 1 1 0 0 0 0 0 0 0 0 1 1 3 3 2 1 1 0 1
0 0 0 0 0 0 0 0 0 0 0 0 0 0 0 0 0 0 0 0 0 0 0 0 1 0 0 1 1 1 0 0 0 0 0 0 0 0 0 0 0 1 2 3 3 2 1 1 2
0 0 0 0 0 0 0 0 0 0 0 0 0 0 0 0 0 0 0 0 0 0 0 0 0 0 0 0 0 1 0 0 0 1 0 0 0 0 0 0 0 0 1 1 2 2 1 1 2
0 0 0 0 0 0 0 0 0 0 0 0 0 0 0 0 0 0 0 0 0 0 0 0 0 0 0 0 0 0 0 0 0 0 0 0 0 0 0 0 0 0 0 0 1 1 1 0 1
0 0 0 0 0 0 0 0 0 0 0 0 0 0 0 0 0 0 0 0 0 0 0 0 0 0 0 0 0 0 0 0 0 0 0 0 0 0 0 0 0 0 0 0 0 0 0 0 0
Wind_Speed
5 4 2 3 5 5 7 5 3 3 2 1 1 2 2 1 2 3 4 3 3 2 2 2 3 3 2 3 4 4 4 4 4 4 4 4 4 4 4 4 4 4 4 4 4 5 5 6 6
4 2 3 3 6 8 7 6 6 3 1 1 1 3 2 1 3 4 3 3 2 2 2 2 3 4 2 2 3 4 4 3 3 3 4 4 4 4 4 3 3 3 4 4 4 5 5 5 6
2 2 2 3 5 8 6 3 2 1 1 1 2 2 2 1 2 3 3 2 1 2 2 3 3 3 3 2 2 3 3 3 3 3 3 3 4 4 4 4 3 3 3 3 4 4 4 4 5
2 2 2 4 8 6 4 2 1 2 2 1 2 2 1 3 3 4 3 1 1 2 2 3 3 3 3 3 2 3 3 3 3 3 3 3 3 4 4 4 3 3 3 3 3 3 3 4 4
1 3 5 5 7 4 2 2 2 4 3 2 3 3 1 2 4 4 3 2 1 1 2 2 2 3 3 4 3 2 3 3 3 3 3 3 4 4 4 4 4 3 2 3 3 3 3 3 3
2 3 6 8 7 4 3 2 4 4 3 2 3 4 2 2 3 4 3 3 2 2 1 1 1 2 3 3 4 3 3 3 4 4 3 4 4 4 4 4 3 3 2 2 2 2 2 3 3
2 3 5 6 5 5 3 2 4 4 4 3 4 5 2 0 3 4 3 3 3 2 2 2 1 1 2 3 4 4 3 3 3 4 3 3 3 2 3 3 3 2 2 1 2 2 2 2 2
1 2 5 6 6 4 1 2 3 4 4 2 3 4 3 2 4 3 3 3 3 3 2 2 1 0 1 1 3 3 4 3 3 4 4 3 2 2 2 2 3 2 2 1 1 1 1 2 2
2 4 5 5 5 3 2 2 2 3 3 3 4 5 5 3 3 2 2 3 3 3 2 2 1 1 0 0 2 2 3 3 2 2 3 1 1 1 1 3 3 3 2 1 0 0 1 1 2
1 4 4 2 2 2 1 3 3 3 5 5 4 3 3 2 2 2 3 3 3 3 3 2 2 2 1 0 0 0 0 1 0 0 0 0 0 0 1 3 3 3 3 1 0 0 2 2 2
1 2 2 2 2 2 3 3 4 5 6 5 5 3 2 2 3 3 4 3 3 3 3 3 2 2 1 0 0 0 0 0 0 0 0 0 0 0 0 0 1 1 1 0 1 1 1 1 0
2 1 2 2 1 3 3 3 4 6 6 4 4 4 3 3 3 4 4 4 3 3 3 3 3 2 1 1 0 0 0 0 0 1 1 0 0 0 0 0 0 0 0 1 1 1 1 1 1
3 1 1 1 1 2 2 4 5 6 5 4 3 3 3 4 4 4 4 4 4 3 3 2 3 2 1 1 1 1 1 1 1 0 1 1 1 1 1 0 0 1 1 1 2 2 1 2 1
2 2 2 2 2 2 3 4 5 5 4 3 3 4 4 4 4 4 4 4 4 3 3 2 2 2 1 1 1 1 1 1 1 0 1 1 1 1 1 1 1 1 1 1 2 2 2 2 1
3 2 2 2 2 2 4 5 6 4 4 4 4 4 4 4 4 4 4 4 5 3 2 2 2 2 2 1 2 1 1 1 1 1 1 1 1 1 1 1 1 1 1 1 1 1 2 2 2
3 3 2 0 1 2 5 7 3 2 4 5 5 4 4 4 4 4 4 4 4 3 3 2 2 2 2 1 1 1 1 1 1 1 1 1 2 2 1 1 1 1 1 1 1 1 2 2 2
3 4 4 2 1 2 5 7 4 2 4 5 5 4 5 4 4 4 4 4 4 4 3 2 2 1 1 2 1 1 1 1 1 1 1 1 2 2 1 1 1 1 1 1 2 2 2 2 2
3 4 4 4 2 4 7 8 6 4 5 5 5 4 4 3 4 4 4 3 3 3 3 2 1 1 1 1 1 1 1 1 1 1 1 1 1 2 2 1 1 1 1 1 2 2 2 2 2
3 5 6 6 4 6 8 9 7 5 5 5 4 4 4 3 3 3 3 3 3 2 2 2 1 1 1 1 1 1 2 2 1 1 1 1 1 2 2 1 1 1 2 2 2 2 3 2 1
4 5 6 5 4 5 8 11 8 6 6 5 5 4 4 4 4 4 4 3 3 3 3 3 2 2 1 2 2 2 2 2 1 1 1 1 1 2 2 2 2 2 2 2 2 2 2 1 1
4 5 6 6 6 4 6 8 5 4 4 4 5 4 4 3 4 4 4 3 3 3 3 3 3 3 2 2 1 1 1 2 2 2 1 1 2 2 2 2 2 2 2 2 2 2 3 2 2
4 4 6 6 6 3 3 6 3 4 4 3 4 4 4 3 4 4 3 4 4 3 3 3 3 3 3 2 2 3 3 3 3 2 2 2 2 2 2 2 2 2 2 2 2 3 2 3 2
3 4 5 6 6 5 4 6 4 3 4 4 4 4 4 4 4 4 4 4 4 3 3 3 3 3 3 3 3 4 4 3 2 3 3 2 2 2 2 2 2 2 2 2 3 3 3 3 3
2 3 3 4 4 5 3 5 5 2 4 4 4 4 4 5 4 4 4 4 4 3 3 3 4 4 3 3 4 4 5 4 4 4 3 2 2 2 2 3 2 2 2 2 3 3 3 3 3
2 2 2 3 4 3 1 5 6 2 2 3 4 4 4 4 4 5 5 4 4 4 4 4 4 4 4 4 4 5 5 5 5 4 3 3 2 2 2 3 3 2 2 3 3 3 3 3 3
3 3 2 4 4 3 3 6 3 1 2 2 3 4 4 4 4 5 5 5 5 5 5 5 5 4 4 4 4 4 5 4 3 4 4 3 3 2 3 3 3 3 3 3 3 3 3 3 3
3 2 2 3 3 5 5 5 5 2 3 3 4 4 4 5 5 5 5 5 5 5 5 5 5 5 4 4 4 4 4 4 4 4 4 3 3 2 3 4 4 3 3 3 3 3 3 3 3
2 2 3 3 3 5 5 5 4 3 4 4 5 5 5 6 5 5 5 5 5 5 4 4 4 4 4 5 4 3 4 4 4 3 3 3 3 3 3 3 3 3 3 3 3 3 3 3 3
3 3 3 3 3 4 5 3 1 3 4 5 5 5 5 5 5 5 5 5 5 5 4 4 4 4 4 4 4 3 4 4 3 2 3 3 3 3 3 3 3 3 3 3 3 3 3 3 2
4 4 5 4 4 4 5 4 2 3 3 4 5 5 5 5 5 5 5 5 5 5 4 4 4 4 4 4 3 3 3 3 2 2 2 2 2 2 3 3 3 3 3 3 3 3 3 2 2
Wind_Direction
328 313 266 224 214 216 227 213 218 195 201 278 302 262 258 271 324 41 55 39 35 67 80 105 42 33 56 76 76 70 81 78 81 84 81 77 72 75 88 94 94 99 110 106 107 113 119 116 115
326 292 226 223 229 221 217 214 212 214 159 84 238 252 246 220 31 53 53 24 32 70 79 95 46 33 39 74 81 79 77 81 82 84 84 80 73 66 67 83 84 92 104 109 109 109 110 121 119
313 291 226 207 224 234 216 185 204 167 176 255 244 263 298 357 41 35 21 15 53 81 68 80 44 37 34 60 87 84 80 74 79 87 83 80 75 64 59 62 72 80 91 108 113 112 112 114 126
251 189 205 224 218 232 245 185 187 186 187 249 261 214 130 38 12 10 18 15 57 78 59 71 37 37 34 43 72 87 85 76 72 81 83 80 76 67 57 51 54 71 85 91 114 118 118 110 118
252 212 201 214 228 225 248 281 235 234 219 234 255 254 203 74 25 23 17 11 20 62 48 65 40 41 36 34 45 75 80 77 73 75 83 84 78 70 65 59 52 55 88 96 103 114 121 121 119
190 217 216 220 217 220 222 245 241 251 249 261 264 257 239 64 20 11 8 2 4 23 38 62 80 52 43 36 40 39 60 65 63 61 72 79 77 73 70 65 57 52 74 105 112 111 118 137 143
218 207 220 223 220 220 228 245 253 257 255 265 289 266 233 319 10 352 357 5 3 13 16 21 118 116 70 44 42 38 40 49 56 56 54 62 69 77 69 65 55 52 50 66 110 132 128 125 154
297 197 204 217 222 222 196 240 269 272 273 316 280 264 264 332 346 333 356 3 360 2 4 356 20 76 119 97 52 41 35 31 46 49 45 50 71 88 77 67 54 46 48 44 94 108 137 129 131
257 215 214 218 223 207 169 238 257 288 261 265 271 290 319 329 313 322 338 346 347 348 357 351 343 340 263 183 72 58 51 43 47 53 42 44 149 128 114 57 42 34 31 46 80 109 147 152 151
240 218 225 241 248 231 218 267 272 248 252 262 263 289 314 292 286 295 299 310 324 330 338 348 336 324 296 257 127 174 127 89 54 107 60 259 6 13 11 60 41 35 26 30 110 209 183 212 184
161 218 198 240 271 247 238 264 270 253 261 274 281 289 283 279 286 282 284 287 300 309 328 334 327 320 298 281 244 248 38 83 334 352 335 283 176 337 312 122 90 58 17 21 80 220 226 233 251
137 171 243 251 264 248 246 249 253 259 277 309 294 291 261 273 278 279 284 293 294 304 314 333 326 311 306 284 256 260 247 268 291 329 289 267 286 301 295 256 288 304 326 313 289 272 257 243 225
176 170 212 232 246 264 251 256 264 267 283 286 276 275 268 269 276 284 296 298 297 295 304 320 324 304 308 298 281 291 264 242 258 301 300 275 250 259 282 289 291 271 298 271 277 268 260 251 250
163 179 229 258 249 265 263 278 260 266 276 267 257 269 268 266 272 283 293 300 296 293 307 320 322 327 324 327 309 297 287 264 269 294 317 283 263 261 269 272 278 277 274 275 269 283 273 253 257
178 198 232 246 252 253 268 260 243 262 263 264 268 273 272 270 272 276 281 289 290 287 300 306 308 324 316 319 315 302 290 279 279 306 294 301 284 257 257 267 268 289 273 255 260 268 275 259 255
207 220 237 213 264 249 252 257 246 251 262 265 273 277 273 273 274 278 281 285 291 290 298 303 304 299 322 320 307 303 294 290 270 269 282 289 299 264 245 262 274 291 270 249 250 251 263 256 257
202 239 256 268 249 264 248 264 263 275 263 266 269 275 276 278 289 295 290 286 290 292 296 294 294 291 326 322 285 297 289 271 260 251 276 290 303 277 247 254 273 275 265 251 250 254 261 257 257
235 255 259 270 287 268 256 262 270 267 257 264 266 273 274 282 299 307 304 301 296 294 298 295 306 320 335 328 281 296 286 271 266 256 265 284 290 285 261 253 261 260 252 253 255 255 268 258 250
240 246 270 286 292 272 259 266 269 261 249 258 268 273 271 286 308 323 323 314 307 303 299 294 299 310 313 318 288 275 272 268 264 275 272 280 303 285 257 260 254 259 252 251 254 249 253 261 259
235 250 282 294 298 276 269 269 263 242 240 250 260 269 272 291 315 325 322 325 312 301 296 293 287 283 286 275 279 268 275 266 267 272 286 288 294 289 256 249 245 242 248 241 245 247 249 256 257
240 251 275 288 303 250 274 265 228 225 232 241 258 272 281 291 302 309 312 313 311 309 300 291 283 267 262 266 283 259 251 253 247 249 260 287 284 275 267 252 245 237 239 241 246 249 248 251 252
246 255 265 267 275 262 265 283 240 227 234 251 263 271 278 290 293 299 306 309 305 303 296 283 277 265 261 253 247 252 246 247 258 259 260 267 281 281 270 256 247 240 240 242 241 251 258 252 249
262 278 265 257 256 265 232 254 265 210 250 278 280 280 287 291 295 304 308 308 306 308 297 287 283 273 265 257 251 258 251 254 256 255 252 260 260 271 268 256 244 242 243 246 243 247 252 249 251
260 270 245 225 232 248 231 246 270 225 255 287 296 296 302 303 305 309 311 308 309 315 308 293 282 277 267 260 258 257 251 247 245 244 242 251 249 250 260 256 244 239 243 244 241 244 244 249 246
241 254 261 237 231 248 168 247 260 259 263 275 280 293 306 314 310 305 310 311 310 311 310 297 288 283 277 269 263 256 256 245 239 239 240 246 245 245 250 252 244 238 239 238 236 238 241 246 245
213 246 264 275 277 295 233 249 273 357 300 287 284 290 304 313 313 311 311 312 303 300 299 294 289 285 281 274 268 260 263 252 243 238 242 245 249 252 252 246 244 238 235 231 227 234 236 240 240
191 220 304 276 287 271 252 265 274 273 291 298 299 301 305 311 313 316 319 320 317 310 305 298 292 290 286 275 267 262 267 257 252 242 240 242 249 246 247 244 238 232 232 233 230 232 231 234 228
292 167 192 226 266 272 269 263 272 277 288 300 301 298 308 313 318 319 319 322 319 314 308 305 295 292 290 280 268 262 267 262 252 244 242 242 243 239 245 243 233 227 226 230 229 234 232 232 219
174 185 220 235 266 269 279 273 7 286 298 296 296 302 304 307 313 316 319 324 324 318 314 308 305 302 297 287 269 268 272 270 252 238 243 246 245 238 240 237 226 226 229 229 225 230 231 225 212
240 225 208 232 235 242 271 281 57 313 305 299 303 306 308 309 314 317 319 324 323 319 315 312 311 307 302 298 294 286 274 268 267 257 251 250 248 244 238 229 217 218 224 228 225 223 224 212 203